Location: Three Guys Observatory
(38.6418°N, 87.1521°W)
Time: 12:24:50
(UTC-04:00)

ISS - Visible Passes

Search period start: 16 April 2014 00:00
Search period end: 26 April 2014 00:00
Orbit: 414 x 420 km, 51.6° (Epoch: 16 April)

Date Brightness Start Highest point End Pass type
(mag) Time Alt. Az. Time Alt. Az. Time Alt. Az.
16 Apr -0.4 23:05:01 10° NNW 23:06:08 16° NNW 23:06:08 16° NNW visible
17 Apr -1.0 22:17:02 10° NNW 22:19:18 17° NNE 22:19:43 16° NNE visible
18 Apr -0.7 21:29:05 10° NNW 21:30:45 13° NNE 21:32:25 10° NE visible
18 Apr -0.7 23:04:50 10° NW 23:06:10 21° NW 23:06:10 21° NW visible
19 Apr -2.0 22:16:38 10° NW 22:19:41 31° NNE 22:19:43 31° NNE visible
20 Apr -1.4 21:28:28 10° NNW 21:31:09 22° NNE 21:33:16 13° ENE visible
20 Apr -0.8 23:04:49 10° WNW 23:06:10 22° WNW 23:06:10 22° WNW visible
21 Apr -3.4 22:16:19 10° NW 22:19:41 84° NE 22:19:43 84° NE visible
22 Apr -2.7 21:27:56 10° NW 21:31:11 47° NE 21:33:16 19° ESE visible
22 Apr -0.4 23:05:24 10° W 23:06:10 13° W 23:06:10 13° W visible
23 Apr -2.0 22:16:19 10° WNW 22:19:18 30° SW 22:19:45 29° SSW visible
24 Apr -2.8 21:27:32 10° WNW 21:30:50 57° SW 21:33:22 16° SSE visible
25 Apr -0.4 22:18:13 10° WSW 22:18:31 10° SW 22:18:48 10° SW visible
